FENGYUN 1C DEB, 38491

Orbit data source: Space-Track

FENGYUN 1C DEB, 38491 is space debris in SSO originally from a launch on Mon, 10 May 1999 UTC launched from the Taiyaun Space Center, China (TSC). Fengyun 1C debris stems from the Chinese weather satellite Fengyun-1C, which was intentionally destroyed by a Chinese anti-satellite missile in 2007. This event dramatically increased the amount of space debris, with thousands of trackable fragments posing hazards to satellites and human spaceflight. The Fengyun 1C debris cloud has become a focal point in discussions about space sustainability and the need for international regulations to prevent the creation of new debris.

Loading next visibility...
Identifier
38491, 1999-025ESA
Orbit
SSO
Country
Flag of CNCN / PRC
Related business
Manufacturer
Unknown
Mission
Spacecraft
Bus & Motor
Unknown
Mass
Unknown
Launch date (UTC)
1999-05-10 (27 years ago)
Launch vehicle
Unknown
Launch site
Taiyaun Space Center, China (TSC)
Object type
Payload
Rocket body
Debris
Shape & HBR
Unknown shape, 0.1 m
Radar Cross Section
Small (<0.1 m²)

Expand to show TLE details & history
Last TLE update: 1 week ago

TLE from 1 week ago
0 FENGYUN 1C DEB
1 38491U 99025ESA 26161.79751661  .00000650  00000-0  40597-3 0  9997
2 38491  98.9343 167.9799 0223943 250.2344 107.4545 13.96596199689731
Epoch: 2026-06-10T19:08Z
TLE epoch observation values (Epoch: 2026-06-10T19:08:25.435Z)
Latitude
-0.00004°
Longitude
-18.27658°
Altitude
960.707 km
Speed
7.345 km/s
True Right ascension
11h 11m 55s
True Declination
0° 00' 00"
Sunlit
Object was in daylight at epoch
Visualization orbit readout
Latitude
Unknown
Longitude
Unknown
Altitude
Unknown
Speed
Unknown
Apparent Right ascension
Unknown
Apparent Declination
Unknown
Sunlit
N/A
Visualization observer readout
Local Sidereal Time
22:10:56
Azimuth
Unknown
Elevation
Unknown
Doppler factor
Unknown
Orbital elements
Apogee altitude
1,065.856 km
Perigee altitude
739.753 km
Semi-major axis
7,280.941 km
Eccentricity
0.02239
Inclination
98.9343°
RAAN
167.9799°
Arg. of periapsis
250.2344°
True anomaly
109.88142°
Mean anomaly
107.4545°
Eccentric anomaly
108.67008°
Mean motion
3.49351 °/min
Orbital period
103.05 mins
BSTAR
0.00040597
Loading maneuver chart data...
Computing Atmospheric mass density...
Loading historical data...
Loading historical data...
Loading historical data...
Loading historical data...
Loading historical data...
Loading historical data...
Loading historical data...

Documentation

Showing up to 5 results
|